When you browse on this site, cookies collect data to enhance your experience and personalize the content and advertising you see.
Visit our Privacy Policy to learn more. By continuing to use the site, you agree to this use of cookies and data.
  • In Latvia
  • List of Countries
  • For 7 days
  • Water Temperature
  • Weather Map
  • Weather Widgets
  • user-avatar
    Login

    Hourly Weather Córdoba

    Today, 22 September, Sunday

    Time Temperature Precipitation Wind Pressure Humidity
    00:00 +14°C° 0 mm 1 mps 729 mmHg 32%
    01:00 +13°C° 0 mm 1 mps 729 mmHg 33%
    02:00 +13°C° 0 mm 1 mps 729 mmHg 34%
    03:00 +12°C° 0 mm 1 mps 730 mmHg 36%
    04:00 +11°C° 0 mm 1 mps 730 mmHg 37%
    05:00 +11°C° 0 mm 1 mps 730 mmHg 39%
    06:00 +12°C° 0 mm 1 mps 731 mmHg 37%
    07:00 +12°C° 0 mm 0 mps 731 mmHg 35%
    08:00 +14°C° 0 mm 0 mps 732 mmHg 32%
    09:00 +17°C° 0 mm 2 mps 732 mmHg 29%
    10:00 +19°C° 0 mm 3 mps 732 mmHg 27%
    11:00 +22°C° 0 mm 4 mps 732 mmHg 24%
    12:00 +22°C° 0 mm 5 mps 732 mmHg 23%
    13:00 +23°C° 0 mm 5 mps 731 mmHg 22%
    14:00 +24°C° 0 mm 6 mps 730 mmHg 21%
    15:00 +24°C° 0 mm 6 mps 730 mmHg 22%
    16:00 +23°C° 0 mm 6 mps 730 mmHg 23%
    17:00 +22°C° 0 mm 6 mps 729 mmHg 24%
    18:00 +20°C° 0 mm 5 mps 729 mmHg 29%
    19:00 +17°C° 0 mm 5 mps 729 mmHg 34%
    20:00 +15°C° 0 mm 4 mps 729 mmHg 40%
    21:00 +16°C° 0 mm 3 mps 729 mmHg 43%
    22:00 +14°C° 0 mm 3 mps 730 mmHg 46%
    23:00 +13°C° 0 mm 3 mps 730 mmHg 49%

    Tomorrow, 23 September, Monday

    Time Temperature Precipitation Wind Pressure Humidity
    00:00 +13°C° 0 mm 3 mps 729 mmHg 52%
    01:00 +12°C° 0 mm 3 mps 729 mmHg 55%
    02:00 +12°C° 0 mm 3 mps 728 mmHg 58%
    03:00 +11°C° 0 mm 3 mps 728 mmHg 60%
    04:00 +11°C° 0 mm 3 mps 728 mmHg 62%
    05:00 +11°C° 0 mm 3 mps 728 mmHg 64%
    06:00 +12°C° 0 mm 4 mps 728 mmHg 61%
    07:00 +13°C° 0 mm 4 mps 728 mmHg 58%
    08:00 +14°C° 0 mm 5 mps 729 mmHg 55%
    09:00 +16°C° 0 mm 5 mps 729 mmHg 49%
    10:00 +19°C° 0 mm 5 mps 729 mmHg 43%
    11:00 +21°C° 0 mm 5 mps 729 mmHg 37%
    12:00 +22°C° 0 mm 4 mps 728 mmHg 34%
    13:00 +23°C° 0 mm 4 mps 727 mmHg 31%
    14:00 +25°C° 0 mm 4 mps 727 mmHg 28%
    15:00 +25°C° 0 mm 4 mps 727 mmHg 29%
    16:00 +25°C° 0 mm 3 mps 726 mmHg 29%
    17:00 +25°C° 0 mm 3 mps 726 mmHg 30%
    18:00 +21°C° 0 mm 3 mps 727 mmHg 34%
    19:00 +19°C° 0 mm 2 mps 727 mmHg 39%
    20:00 +17°C° 0 mm 2 mps 728 mmHg 43%
    21:00 +17°C° 0 mm 2 mps 728 mmHg 45%
    22:00 +16°C° 0 mm 1 mps 729 mmHg 47%
    23:00 +15°C° 0 mm 1 mps 729 mmHg 49%

    Day after tomorrow, 24 September, Tuesday

    Time Temperature Precipitation Wind Pressure Humidity
    00:00 +15°C° 0 mm 1 mps 729 mmHg 52%
    01:00 +15°C° 0 mm 1 mps 729 mmHg 54%
    02:00 +14°C° 0 mm 1 mps 729 mmHg 56%
    03:00 +14°C° 0 mm 1 mps 729 mmHg 58%
    04:00 +14°C° 0 mm 1 mps 729 mmHg 60%
    05:00 +12°C° 0 mm 0 mps 729 mmHg 62%
    06:00 +14°C° 0 mm 0 mps 729 mmHg 56%
    07:00 +16°C° 0 mm 0 mps 730 mmHg 50%
    08:00 +18°C° 0 mm 0 mps 730 mmHg 44%
    09:00 +22°C° 0 mm 1 mps 730 mmHg 38%
    10:00 +24°C° 0 mm 1 mps 730 mmHg 33%
    11:00 +26°C° 0 mm 2 mps 730 mmHg 28%
    12:00 +27°C° 0 mm 2 mps 730 mmHg 26%
    13:00 +28°C° 0 mm 2 mps 729 mmHg 24%
    14:00 +29°C° 0 mm 2 mps 729 mmHg 23%
    15:00 +29°C° 0 mm 3 mps 728 mmHg 23%
    16:00 +28°C° 0 mm 3 mps 728 mmHg 23%
    17:00 +28°C° 0 mm 3 mps 728 mmHg 23%
    18:00 +25°C° 0 mm 3 mps 728 mmHg 28%
    19:00 +23°C° 0 mm 2 mps 728 mmHg 34%
    20:00 +19°C° 0 mm 2 mps 729 mmHg 39%
    21:00 +19°C° 0 mm 2 mps 729 mmHg 40%
    22:00 +19°C° 0 mm 1 mps 729 mmHg 41%
    23:00 +18°C° 0 mm 1 mps 729 mmHg 42%

    25 September, Wednesday

    Time Temperature Precipitation Wind Pressure Humidity
    00:00 +18°C° 0 mm 1 mps 729 mmHg 42%
    01:00 +18°C° 0 mm 1 mps 729 mmHg 42%
    02:00 +16°C° 0 mm 1 mps 729 mmHg 43%
    03:00 +16°C° 0 mm 1 mps 729 mmHg 43%
    04:00 +16°C° 0 mm 1 mps 729 mmHg 43%
    05:00 +15°C° 0 mm 1 mps 729 mmHg 43%
    06:00 +18°C° 0 mm 1 mps 729 mmHg 39%
    07:00 +20°C° 0 mm 1 mps 729 mmHg 35%
    08:00 +22°C° 0 mm 1 mps 729 mmHg 32%
    09:00 +24°C° 0 mm 1 mps 729 mmHg 28%
    10:00 +27°C° 0 mm 2 mps 729 mmHg 25%
    11:00 +29°C° 0 mm 2 mps 730 mmHg 21%
    12:00 +30°C° 0 mm 3 mps 729 mmHg 20%
    13:00 +31°C° 0 mm 3 mps 728 mmHg 18%
    14:00 +33°C° 0 mm 3 mps 728 mmHg 16%
    15:00 +32°C° 0 mm 4 mps 727 mmHg 17%
    16:00 +32°C° 0 mm 4 mps 727 mmHg 18%
    17:00 +30°C° 0 mm 4 mps 726 mmHg 19%
    18:00 +27°C° 0 mm 4 mps 726 mmHg 24%
    19:00 +23°C° 0 mm 4 mps 726 mmHg 30%
    20:00 +21°C° 0 mm 3 mps 726 mmHg 35%
    21:00 +20°C° 0 mm 3 mps 726 mmHg 37%
    22:00 +19°C° 0 mm 3 mps 727 mmHg 38%
    23:00 +18°C° 0 mm 3 mps 727 mmHg 39%

    26 September, Thursday

    Time Temperature Precipitation Wind Pressure Humidity
    00:00 +18°C° 0 mm 2 mps 727 mmHg 40%
    01:00 +18°C° 0 mm 2 mps 727 mmHg 41%
    02:00 +17°C° 0 mm 2 mps 727 mmHg 42%
    03:00 +17°C° 0 mm 2 mps 727 mmHg 42%
    04:00 +16°C° 0 mm 2 mps 727 mmHg 43%
    05:00 +16°C° 0 mm 2 mps 727 mmHg 44%
    06:00 +18°C° 0 mm 2 mps 727 mmHg 40%
    07:00 +20°C° 0 mm 2 mps 727 mmHg 36%
    08:00 +21°C° 0 mm 3 mps 728 mmHg 32%
    09:00 +24°C° 0 mm 3 mps 728 mmHg 29%
    10:00 +26°C° 0 mm 4 mps 728 mmHg 25%
    11:00 +28°C° 0 mm 5 mps 728 mmHg 21%
    12:00 +29°C° 0 mm 5 mps 727 mmHg 20%
    13:00 +30°C° 0 mm 5 mps 727 mmHg 19%
    14:00 +30°C° 0 mm 5 mps 726 mmHg 17%
    15:00 +29°C° 0 mm 5 mps 726 mmHg 19%
    16:00 +29°C° 0 mm 5 mps 725 mmHg 21%
    17:00 +28°C° 0 mm 5 mps 725 mmHg 23%
    18:00 +26°C° 0 mm 5 mps 725 mmHg 28%
    19:00 +22°C° 0 mm 4 mps 725 mmHg 33%
    20:00 +20°C° 0 mm 3 mps 726 mmHg 38%
    21:00 +19°C° 0 mm 3 mps 725 mmHg 43%
    22:00 +19°C° 0 mm 3 mps 725 mmHg 48%
    23:00 +18°C° 0 mm 2 mps 725 mmHg 53%

    27 September, Friday

    Time Temperature Precipitation Wind Pressure Humidity
    00:00 +17°C° 0 mm 2 mps 725 mmHg 57%
    01:00 +16°C° 0 mm 2 mps 725 mmHg 61%
    02:00 +16°C° 0 mm 2 mps 724 mmHg 66%
    03:00 +15°C° 0 mm 2 mps 724 mmHg 69%
    04:00 +15°C° 0 mm 2 mps 724 mmHg 72%
    05:00 +15°C° 0 mm 2 mps 724 mmHg 76%
    06:00 +16°C° 0 mm 2 mps 724 mmHg 71%
    07:00 +17°C° 0 mm 3 mps 724 mmHg 67%
    08:00 +18°C° 0 mm 4 mps 725 mmHg 63%
    09:00 +20°C° 0 mm 5 mps 725 mmHg 55%
    10:00 +22°C° 0 mm 6 mps 724 mmHg 48%
    11:00 +24°C° 0 mm 6 mps 724 mmHg 41%
    12:00 +26°C° 0 mm 6 mps 724 mmHg 37%
    13:00 +27°C° 0 mm 6 mps 723 mmHg 33%
    14:00 +29°C° 0 mm 6 mps 722 mmHg 29%
    15:00 +28°C° 0 mm 6 mps 722 mmHg 29%
    16:00 +28°C° 0 mm 6 mps 722 mmHg 30%
    17:00 +28°C° 0 mm 6 mps 721 mmHg 30%
    18:00 +26°C° 0 mm 5 mps 722 mmHg 37%
    19:00 +22°C° 0 mm 4 mps 722 mmHg 44%
    20:00 +20°C° 0 mm 4 mps 722 mmHg 51%
    21:00 +19°C° 0 mm 3 mps 723 mmHg 55%
    22:00 +18°C° 0 mm 2 mps 723 mmHg 59%
    23:00 +19°C° 0 mm 1 mps 723 mmHg 63%
    Show more